Steelville, Pennsylvania
Current Conditions -  °F | °C
As of 11:35 AM on Friday 28 Nov 2014 (Local Time) from KMQS Reporting Station
Broken Clouds Broken Clouds  
Wind Chill: 23°   Ceiling: 4600
Heat Index: 32°   Visibility: 10mi
Dew Point: 16°   Wind: 13mph
Humidity: 51%   Direction: 340°NNW
Pressure: 30.22"   Gusts: 20mph
Location:  39.9°N, 75.99°W
Report Text: KMQS 281635Z AUTO 34011G17KT 10SM BKN046 00/M09 A3022 RMK AO2
Loading
Personal Weather Stations






























Interactive Weather Map New forecast layout! Learn more

10-Day Weather Forecast

Advertisements
Track Severe Weather on mobile